Northfield, Minnesota, United States (55057)
Lat: 44.46N, Lon: 93.16W
Wx Zone: MNZ077
Local Info
Past Weather Observations for Today

NOTE: This archive is for the closest National Weather Service station to Northfield. Information may differ from the station used for current weather conditions.

Click here for Long-term Archive

Time Weather Temperature Dewpoint Humidity Pressure Winds Precip Visibility
12:53
Clear
39°F / 4°C 18°F / -8°C 42% 30.51 in
(1033 mb)
NNE 9.2 mph
(NNE 15 kph)
- 10SM
12:34
Clear
39°F / 4°C 18°F / -8°C 42% 30.51 in
(1033 mb)
NE 8.1 mph
(NE 13 kph)
- 10SM
12:13
Clear
37°F / 3°C 18°F / -8°C 45% 30.51 in
(1033 mb)
N 10.4 mph
(N 17 kph)
- 10SM
11:54
Clear
37°F / 3°C 19°F / -7°C 48% 30.54 in
(1034 mb)
NNE 9.2 mph
(NNE 15 kph)
- 10SM
11:34
Clear
37°F / 3°C 18°F / -8°C 45% 30.54 in
(1034 mb)
N 10.4 mph
(N 17 kph)
- 10SM
11:13
Clear
37°F / 3°C 19°F / -7°C 48% 30.54 in
(1034 mb)
N 13.8 mph
(N 22 kph)
- 10SM
10:54
Clear
36°F / 2°C 19°F / -7°C 52% 30.54 in
(1034 mb)
NNE 16.1 mph
(NNE 26 kph)
- 10SM
10:34
Clear
36°F / 2°C 19°F / -7°C 52% 30.54 in
(1034 mb)
N 15 mph
(N 24 kph)
- 10SM
10:13
Clear
36°F / 2°C 19°F / -7°C 52% 30.54 in
(1034 mb)
N 15 mph
(N 24 kph)
- 10SM
09:54
Clear
34°F / 1°C 19°F / -7°C 56% 30.54 in
(1034 mb)
NNE 17.3 mph
(NNE 28 kph)
- 10SM
09:33
Clear
34°F / 1°C 19°F / -7°C 56% 30.54 in
(1034 mb)
N 16.1 mph
(N 26 kph)
- 10SM
09:13
Clear
32°F / 0°C 19°F / -7°C 60% 30.51 in
(1033 mb)
NE 16.1 mph
(NE 26 kph)
- 10SM
08:54
Clear
32°F / 0°C 18°F / -8°C 55% 30.51 in
(1033 mb)
NNE 18.4 mph
(NNE 30 kph)
- 10SM
08:33
Clear
32°F / 0°C 18°F / -8°C 55% 30.51 in
(1033 mb)
N 17.3 mph
(N 28 kph)
- 10SM
08:14
Clear
30°F / -1°C 18°F / -8°C 59% 30.51 in
(1033 mb)
N 16.1 mph
(N 26 kph)
- 10SM
07:54
Clear
30°F / -1°C 18°F / -8°C 59% 30.51 in
(1033 mb)
N 15 mph
(N 24 kph)
- 10SM
07:33
Clear
28°F / -2°C 18°F / -8°C 64% 30.51 in
(1033 mb)
N 13.8 mph
(N 22 kph)
- 10SM
07:14
Clear
27°F / -3°C 18°F / -8°C 69% 30.51 in
(1033 mb)
N 13.8 mph
(N 22 kph)
- 10SM
06:54
Clear
27°F / -3°C 18°F / -8°C 69% 30.48 in
(1032 mb)
N 11.5 mph
(N 19 kph)
- 10SM
06:33
Clear
27°F / -3°C 18°F / -8°C 69% 30.45 in
(1031 mb)
N 12.7 mph
(N 20 kph)
- 10SM
06:14
Clear
27°F / -3°C 18°F / -8°C 69% 30.45 in
(1031 mb)
N 10.4 mph
(N 17 kph)
- 10SM
05:54
Clear
27°F / -3°C 18°F / -8°C 69% 30.48 in
(1032 mb)
NNW 10.4 mph
(NNW 17 kph)
- 10SM
05:33
Clear
27°F / -3°C 18°F / -8°C 69% 30.45 in
(1031 mb)
NNW 9.2 mph
(NNW 15 kph)
- 10SM
05:14
Clear
27°F / -3°C 18°F / -8°C 69% 30.45 in
(1031 mb)
NNW 10.4 mph
(NNW 17 kph)
- 10SM
04:53
Clear
28°F / -2°C 18°F / -8°C 64% 30.45 in
(1031 mb)
NNW 11.5 mph
(NNW 19 kph)
- 10SM
04:34
Clear
28°F / -2°C 18°F / -8°C 64% 30.45 in
(1031 mb)
NNW 11.5 mph
(NNW 19 kph)
- 10SM
04:14
Clear
28°F / -2°C 18°F / -8°C 64% 30.45 in
(1031 mb)
NNW 10.4 mph
(NNW 17 kph)
- 10SM
03:53
Clear
28°F / -2°C 18°F / -8°C 64% 30.42 in
(1030 mb)
NNW 10.4 mph
(NNW 17 kph)
- 10SM
03:34
Clear
28°F / -2°C 18°F / -8°C 64% 30.42 in
(1030 mb)
N 11.5 mph
(N 19 kph)
- 10SM
03:13
Clear
30°F / -1°C 18°F / -8°C 59% 30.42 in
(1030 mb)
N 12.7 mph
(N 20 kph)
- 10SM
02:53
Clear
30°F / -1°C 18°F / -8°C 59% 30.42 in
(1030 mb)
N 13.8 mph
(N 22 kph)
- 10SM
02:34
Clear
30°F / -1°C 18°F / -8°C 59% 30.42 in
(1030 mb)
N 13.8 mph
(N 22 kph)
- 10SM
02:13
Clear
30°F / -1°C 16°F / -9°C 55% 30.42 in
(1030 mb)
N 9.2 mph
(N 15 kph)
- 10SM
01:54
Clear
30°F / -1°C 16°F / -9°C 55% 30.39 in
(1029 mb)
NNW 10.4 mph
(NNW 17 kph)
- 10SM
01:34
Clear
30°F / -1°C 16°F / -9°C 55% 30.39 in
(1029 mb)
N 17.3 mph
(N 28 kph)
- 10SM
01:13
Clear
30°F / -1°C 16°F / -9°C 55% 30.39 in
(1029 mb)
N 10.4 mph
(N 17 kph)
- 10SM
00:54
Clear
32°F / 0°C 16°F / -9°C 51% 30.36 in
(1028 mb)
N 15 mph
(N 24 kph)
- 10SM
00:34
Clear
32°F / 0°C 14°F / -10°C 47% 30.36 in
(1028 mb)
N 17.3 mph
(N 28 kph)
- 10SM
00:13
Clear
32°F / 0°C 14°F / -10°C 47% 30.36 in
(1028 mb)
N 15 mph
(N 24 kph)
- 10SM
Time Weather Temperature Dewpoint Humidity Pressure Winds Precip Visibility


Weather for websites

WeatherForYou.com, LLC is not responsible for any damages or problems caused by this service. Current weather conditions are obtained from the closest station including government and personal stations which may have varying degrees of accuracy. Weather forecasts are derived from the NOAA NDFD. Like all things, this site belongs to Jesus Christ... He just trusts me to maintain it. If you have any questions or comments email webmaster@weatherforyou.com

Copyright © 2014, WeatherForYou.com LLC. All rights reserved.